DW5425 Weather Reports


Display with metric or nautical units.
time (UTC)temp
F
wind
direction
speed
MPH
gust
MPH
rain 1hr
in
rain 24hr
in
rain mn
in
humidity
%
barometer
mb
20260505125004 66 216 1.0 2.0 0.00 0.00 0.00 64 1009.8
20260505124003 65 137 0.0 1.0 0.00 0.00 0.00 66 1009.8
20260505123504 64 137 0.0 2.0 0.00 0.00 0.00 67 1009.9
20260505123004 64 126 2.0 3.0 0.00 0.00 0.00 66 1009.9
20260505122004 63 153 0.0 2.0 0.00 0.00 0.00 68 1010.0
20260505121504 63 153 1.0 3.0 0.00 0.00 0.00 68 1009.9
20260505115004 61 136 1.0 3.0 0.00 0.00 0.00 71 1009.8
20260505114504 60 161 0.0 2.0 0.00 0.00 0.00 71 1009.7
20260505113003 59 143 0.0 0.0 0.00 0.00 0.00 73 1009.5
20260505112004 59 147 0.0 2.0 0.00 0.00 0.00 74 1009.4
20260505111504 58 161 0.0 0.0 0.00 0.00 0.00 75 1009.5
20260505111003 57 161 0.0 1.0 0.00 0.00 0.00 76 1009.5
20260505110504 57 161 0.0 2.0 0.00 0.00 0.00 76 1009.3
20260505095504 54 152 0.0 1.0 0.00 0.00 0.00 76 1009.0
20260505094503 55 152 0.0 1.0 0.00 0.00 0.00 76 1008.8
20260505094004 55 152 1.0 1.0 0.00 0.00 0.00 75 1008.8
20260505093504 56 152 0.0 0.0 0.00 0.00 0.00 75 1008.7
20260505091004 57 152 0.0 0.0 0.00 0.00 0.00 73 1008.6
20260505090004 58 152 0.0 0.0 0.00 0.00 0.00 72 1008.7
20260505085005 58 152 0.0 0.0 0.00 0.00 0.00 72 1008.6
20260505084504 58 152 0.0 0.0 0.00 0.00 0.00 72 1008.6
20260505083503 57 152 0.0 1.0 0.00 0.00 0.00 73 1008.4
20260505082504 57 152 0.0 0.0 0.00 0.00 0.00 73 1008.6
20260505081004 58 152 0.0 0.0 0.00 0.00 0.00 72 1008.5
20260505080503 58 152 0.0 0.0 0.00 0.00 0.00 72 1008.4
20260505080004 58 152 0.0 0.0 0.00 0.00 0.00 71 1008.4
20260505075504 58 152 0.0 0.0 0.00 0.00 0.00 71 1008.4
20260505074504 59 152 0.0 1.0 0.00 0.00 0.00 71 1008.3
20260505074004 59 152 0.0 0.0 0.00 0.00 0.00 70 1008.3
20260505073503 59 152 0.0 0.0 0.00 0.00 0.00 70 1008.2
20260505070503 60 152 0.0 0.0 0.00 0.00 0.00 68 1008.1
20260505064503 61 152 0.0 2.0 0.00 0.00 0.00 67 1008.3
20260505064003 62 152 0.0 1.0 0.00 0.00 0.00 66 1008.4
20260505062005 62 152 0.0 0.0 0.00 0.00 0.00 65 1008.4
20260505061504 62 152 0.0 0.0 0.00 0.00 0.00 64 1008.4
20260505061003 62 152 0.0 1.0 0.00 0.00 0.00 64 1008.5
20260505060503 62 152 0.0 1.0 0.00 0.00 0.00 64 1008.5
20260505055004 63 152 1.0 2.0 0.00 0.00 0.00 64 1008.6
20260505054004 63 152 0.0 1.0 0.00 0.00 0.00 64 1008.5
20260505052503 63 152 0.0 1.0 0.00 0.00 0.00 63 1008.5
20260505051504 63 152 0.0 1.0 0.00 0.00 0.00 63 1008.5
20260505051005 63 152 0.0 1.0 0.00 0.00 0.00 63 1008.5
20260505050503 63 152 0.0 0.0 0.00 0.00 0.00 62 1008.4
20260505041003 64 142 2.0 3.0 0.00 0.00 0.00 60 1008.1
20260505035004 62 140 0.0 1.0 0.00 0.00 0.00 60 1008.0
20260505034003 63 140 0.0 3.0 0.00 0.00 0.00 59 1008.1
20260505033503 63 140 0.0 1.0 0.00 0.00 0.00 58 1008.1
20260505032504 63 140 0.0 0.0 0.00 0.00 0.00 58 1008.2
20260505030004 65 140 0.0 1.0 0.00 0.00 0.00 55 1008.1
20260505025004 65 140 0.0 1.0 0.00 0.00 0.00 54 1008.1
20260505024504 65 140 0.0 0.0 0.00 0.00 0.00 53 1008.1
20260505024004 65 140 0.0 1.0 0.00 0.00 0.00 53 1008.0
20260505023004 65 140 1.0 2.0 0.00 0.00 0.00 53 1007.9
20260505022504 65 143 1.0 3.0 0.00 0.00 0.00 52 1007.8
20260505022004 66 146 0.0 3.0 0.00 0.00 0.00 52 1007.9
20260505014004 67 152 2.0 3.0 0.00 0.00 0.00 50 1007.7
20260505013504 67 161 1.0 3.0 0.00 0.00 0.00 50 1007.7
20260505012504 67 146 2.0 3.0 0.00 0.00 0.00 49 1007.5
20260505012004 68 143 2.0 3.0 0.00 0.00 0.00 49 1007.5
20260505011003 68 151 2.0 3.0 0.00 0.00 0.00 48 1007.7
20260505010504 68 154 1.0 3.0 0.00 0.00 0.00 48 1007.7
20260505005504 68 156 2.0 3.0 0.00 0.00 0.00 48 1007.5
20260505004004 69 161 1.0 3.0 0.00 0.00 0.00 48 1007.3
20260505003504 69 168 2.0 5.0 0.00 0.00 0.00 47 1007.3
20260505002503 69 154 1.0 3.0 0.00 0.00 0.00 47 1007.2
20260505002004 70 156 1.0 5.0 0.00 0.00 0.00 46 1007.2
20260505001004 70 155 1.0 6.0 0.00 0.00 0.00 45 1007.1
20260505000004 70 153 2.0 6.0 0.00 0.00 0.00 44 1007.1
20260504235503 71 155 3.0 7.0 0.00 0.00 0.00 44 1007.0
20260504235004 71 158 2.0 6.0 0.00 0.00 0.00 43 1007.0
20260504234504 71 160 5.0 8.0 0.00 0.00 0.00 43 1007.0
20260504234004 71 143 3.0 8.0 0.00 0.00 0.00 43 1007.0
20260504233003 72 143 5.0 7.0 0.00 0.00 0.00 42 1006.9
20260504232504 72 154 4.0 12.0 0.00 0.00 0.00 42 1006.9
20260504232005 72 153 2.0 9.0 0.00 0.00 0.00 43 1006.9
20260504231504 72 162 3.0 9.0 0.00 0.00 0.00 42 1006.9
20260504230503 73 157 4.0 8.0 0.00 0.00 0.00 42 1007.0
20260504230004 73 165 2.0 5.0 0.00 0.00 0.00 43 1007.0
20260504225504 73 155 2.0 9.0 0.00 0.00 0.00 42 1007.1
20260504224504 73 153 2.0 10.0 0.00 0.00 0.00 42 1007.1
20260504221503 73 148 3.0 10.0 0.00 0.00 0.00 41 1007.3
20260504220504 73 155 6.0 12.0 0.00 0.00 0.00 40 1007.3
20260504215004 74 155 8.0 14.0 0.00 0.00 0.00 40 1007.3
20260504214504 74 159 4.0 9.0 0.00 0.00 0.00 40 1007.3
20260504213003 74 161 4.0 16.0 0.00 0.00 0.00 40 1007.1
20260504210504 74 145 4.0 12.0 0.00 0.00 0.00 40 1007.2
20260504204504 76 172 2.0 7.0 0.00 0.00 0.00 37 1007.1
20260504204004 76 164 3.0 10.0 0.00 0.00 0.00 37 1007.2
20260504202004 77 163 2.0 5.0 0.00 0.00 0.00 34 1007.5
20260504201504 77 156 2.0 8.0 0.00 0.00 0.00 34 1007.6
20260504201003 76 234 2.0 3.0 0.00 0.00 0.00 36 1007.6
20260504200004 76 239 1.0 7.0 0.00 0.00 0.00 36 1007.9
20260504195503 76 150 2.0 5.0 0.00 0.00 0.00 36 1007.9
20260504194503 75 151 5.0 12.0 0.00 0.00 0.00 36 1008.0
20260504194004 75 163 2.0 6.0 0.00 0.00 0.00 37 1008.1
20260504192503 76 146 1.0 6.0 0.00 0.00 0.00 37 1008.5
20260504192004 76 222 1.0 5.0 0.00 0.00 0.00 37 1008.5
20260504191503 75 188 4.0 12.0 0.00 0.00 0.00 35 1008.7
20260504190504 75 151 3.0 8.0 0.00 0.00 0.00 36 1008.7
20260504190004 75 243 5.0 9.0 0.00 0.00 0.00 35 1008.7
20260504185504 75 197 2.0 10.0 0.00 0.00 0.00 39 1008.9
20260504185004 74 157 2.0 6.0 0.00 0.00 0.00 38 1009.0
20260504183504 74 198 2.0 9.0 0.00 0.00 0.00 40 1009.2
20260504183004 74 166 4.0 7.0 0.00 0.00 0.00 38 1009.2
20260504180504 75 117 1.0 5.0 0.00 0.00 0.00 37 1009.6
20260504180003 74 190 1.0 3.0 0.00 0.00 0.00 42 1009.8
20260504175004 72 166 2.0 6.0 0.00 0.00 0.00 39 1009.8
20260504174004 72 175 2.0 9.0 0.00 0.00 0.00 44 1010.0
20260504173003 71 117 1.0 13.0 0.00 0.00 0.00 43 1010.0
20260504171504 69 151 3.0 9.0 0.00 0.00 0.00 42 1010.3
20260504170503 69 148 7.0 15.0 0.00 0.00 0.00 42 1010.3
20260504151004 66 113 1.0 5.0 0.00 0.00 0.00 42 1012.2
20260504150504 66 214 2.0 3.0 0.00 0.00 0.00 44 1012.3